owner,sensor,date,latitude,longitude,air_pressure(mBar),qcFlag 
TABS,ioos:station:wmo:42045:1,2009-02-01T00:00:00Z,26.2168,-96.4998,1021.08,11111222 
TABS,ioos:station:wmo:42045:1,2009-02-01T00:30:00Z,26.2168,-96.4998,1020.73,11111222 
TABS,ioos:station:wmo:42045:1,2009-02-01T01:00:00Z,26.2168,-96.4998,1020.79,11111222 
TABS,ioos:station:wmo:42045:1,2009-02-01T01:30:00Z,26.2168,-96.4998,1020.85,11111222 
TABS,ioos:station:wmo:42045:1,2009-02-01T02:00:00Z,26.2168,-96.4998,1021.22,11111222 
TABS,ioos:station:wmo:42045:1,2009-02-01T02:30:00Z,26.2168,-96.4998,1021.41,11111222 
TABS,ioos:station:wmo:42045:1,2009-02-01T03:00:00Z,26.2168,-96.4998,1021.11,11111222 
TABS,ioos:station:wmo:42045:1,2009-02-01T03:30:00Z,26.2168,-96.4998,1020.6,11111222 
TABS,ioos:station:wmo:42045:1,2009-02-01T04:00:00Z,26.2168,-96.4998,1020.21,11111222 
TABS,ioos:station:wmo:42045:1,2009-02-01T04:30:00Z,26.2168,-96.4998,1019.94,11111222 
TABS,ioos:station:wmo:42045:1,2009-02-01T05:00:00Z,26.2168,-96.4998,1019.44,11111222 
TABS,ioos:station:wmo:42045:1,2009-02-01T05:30:00Z,26.2168,-96.4998,1019.25,11111222 
TABS,ioos:station:wmo:42045:1,2009-02-01T06:00:00Z,26.2168,-96.4998,1018.72,11111222 
TABS,ioos:station:wmo:42045:1,2009-02-01T06:30:00Z,26.2168,-96.4998,1018.6,11111222 
TABS,ioos:station:wmo:42045:1,2009-02-01T07:00:00Z,26.2168,-96.4998,1018.16,11111222 
TABS,ioos:station:wmo:42045:1,2009-02-01T07:30:00Z,26.2168,-96.4998,1017.78,11111222 
TABS,ioos:station:wmo:42045:1,2009-02-01T08:00:00Z,26.2168,-96.4998,1017.35,11111222 
TABS,ioos:station:wmo:42045:1,2009-02-01T08:30:00Z,26.2168,-96.4998,1017.03,11111222 
TABS,ioos:station:wmo:42045:1,2009-02-01T09:00:00Z,26.2168,-96.4998,1016.42,11111222 
TABS,ioos:station:wmo:42045:1,2009-02-01T09:30:00Z,26.2168,-96.4998,1016.07,11111222 
TABS,ioos:station:wmo:42045:1,2009-02-01T10:00:00Z,26.2168,-96.4998,1015.88,11111222 
TABS,ioos:station:wmo:42045:1,2009-02-01T10:30:00Z,26.2168,-96.4998,1015.89,11111222 
TABS,ioos:station:wmo:42045:1,2009-02-01T11:00:00Z,26.2168,-96.4998,1015.81,11111222 
TABS,ioos:station:wmo:42045:1,2009-02-01T11:30:00Z,26.2168,-96.4998,1015.77,11111222 
TABS,ioos:station:wmo:42045:1,2009-02-01T12:00:00Z,26.2168,-96.4998,1015.87,11111222 
TABS,ioos:station:wmo:42045:1,2009-02-01T12:30:00Z,26.2168,-96.4998,1015.87,11111222 
TABS,ioos:station:wmo:42045:1,2009-02-01T13:00:00Z,26.2168,-96.4998,1016.1,11111222 
TABS,ioos:station:wmo:42045:1,2009-02-01T13:30:00Z,26.2168,-96.4998,1016.05,11111222 
TABS,ioos:station:wmo:42045:1,2009-02-01T14:00:00Z,26.2168,-96.4998,1016.27,11111222 
TABS,ioos:station:wmo:42045:1,2009-02-01T14:30:00Z,26.2168,-96.4998,1016.39,11111222 
TABS,ioos:station:wmo:42045:1,2009-02-01T15:00:00Z,26.2168,-96.4998,1016.55,11111222 
TABS,ioos:station:wmo:42045:1,2009-02-01T15:30:00Z,26.2168,-96.4998,1016.69,11111222 
TABS,ioos:station:wmo:42045:1,2009-02-01T16:00:00Z,26.2168,-96.4998,1016.84,11111222 
TABS,ioos:station:wmo:42045:1,2009-02-01T16:30:00Z,26.2168,-96.4998,1016.5,11111222 
TABS,ioos:station:wmo:42045:1,2009-02-01T17:00:00Z,26.2168,-96.4998,1016.32,11111222 
TABS,ioos:station:wmo:42045:1,2009-02-01T17:30:00Z,26.2168,-96.4998,1015.76,11111222 
TABS,ioos:station:wmo:42045:1,2009-02-01T18:00:00Z,26.2168,-96.4998,1015.0,11111222 
TABS,ioos:station:wmo:42045:1,2009-02-01T18:30:00Z,26.2168,-96.4998,1014.39,11111222 
TABS,ioos:station:wmo:42045:1,2009-02-01T19:00:00Z,26.2168,-96.4998,1013.33,11111222 
TABS,ioos:station:wmo:42045:1,2009-02-01T19:30:00Z,26.2168,-96.4998,1012.86,11111222 
TABS,ioos:station:wmo:42045:1,2009-02-01T20:00:00Z,26.2168,-96.4998,1012.62,11111222 
TABS,ioos:station:wmo:42045:1,2009-02-01T20:30:00Z,26.2168,-96.4998,1011.76,11111222 
TABS,ioos:station:wmo:42045:1,2009-02-01T21:00:00Z,26.2168,-96.4998,1011.7,11111222 
TABS,ioos:station:wmo:42045:1,2009-02-01T21:30:00Z,26.2168,-96.4998,1011.8,11111222 
TABS,ioos:station:wmo:42045:1,2009-02-01T22:00:00Z,26.2168,-96.4998,1011.65,11111222 
TABS,ioos:station:wmo:42045:1,2009-02-01T22:30:00Z,26.2168,-96.4998,1011.89,11111222 
TABS,ioos:station:wmo:42045:1,2009-02-01T23:00:00Z,26.2168,-96.4998,1012.05,11111222 
TABS,ioos:station:wmo:42045:1,2009-02-01T23:30:00Z,26.2168,-96.4998,1011.92,11111222 
TABS,ioos:station:wmo:42045:1,2009-02-02T00:00:00Z,26.2168,-96.4998,1012.01,11111222 
TABS,ioos:station:wmo:42045:1,2009-02-02T00:30:00Z,26.2168,-96.4998,1011.93,11111222 
TABS,ioos:station:wmo:42045:1,2009-02-02T01:00:00Z,26.2168,-96.4998,1011.94,11111222 
TABS,ioos:station:wmo:42045:1,2009-02-02T01:30:00Z,26.2168,-96.4998,1012.28,11111222 
TABS,ioos:station:wmo:42045:1,2009-02-02T02:00:00Z,26.2168,-96.4998,1012.59,11111222 
TABS,ioos:station:wmo:42045:1,2009-02-02T02:30:00Z,26.2168,-96.4998,1012.77,11111222 
TABS,ioos:station:wmo:42045:1,2009-02-02T03:00:00Z,26.2168,-96.4998,1013.15,11111222 
TABS,ioos:station:wmo:42045:1,2009-02-02T03:30:00Z,26.2168,-96.4998,1013.44,11111222 
TABS,ioos:station:wmo:42045:1,2009-02-02T04:00:00Z,26.2168,-96.4998,1013.48,11111222 
TABS,ioos:station:wmo:42045:1,2009-02-02T04:30:00Z,26.2168,-96.4998,1013.71,11111222 
TABS,ioos:station:wmo:42045:1,2009-02-02T05:00:00Z,26.2168,-96.4998,1013.49,11111222 
TABS,ioos:station:wmo:42045:1,2009-02-02T05:30:00Z,26.2168,-96.4998,1013.66,11111222 
TABS,ioos:station:wmo:42045:1,2009-02-02T06:00:00Z,26.2168,-96.4998,1013.55,11111222 
TABS,ioos:station:wmo:42045:1,2009-02-02T06:30:00Z,26.2168,-96.4998,1013.76,11111222 
TABS,ioos:station:wmo:42045:1,2009-02-02T07:00:00Z,26.2168,-96.4998,1013.87,11111222 
TABS,ioos:station:wmo:42045:1,2009-02-02T07:30:00Z,26.2168,-96.4998,1013.67,11111222 
TABS,ioos:station:wmo:42045:1,2009-02-02T08:00:00Z,26.2168,-96.4998,1013.41,11111222 
TABS,ioos:station:wmo:42045:1,2009-02-02T08:30:00Z,26.2168,-96.4998,1013.37,11111222 
TABS,ioos:station:wmo:42045:1,2009-02-02T09:00:00Z,26.2168,-96.4998,1013.41,11111222 
TABS,ioos:station:wmo:42045:1,2009-02-02T09:30:00Z,26.2168,-96.4998,1013.2,11111222 
TABS,ioos:station:wmo:42045:1,2009-02-02T10:00:00Z,26.2168,-96.4998,1013.62,11111222 
TABS,ioos:station:wmo:42045:1,2009-02-02T10:30:00Z,26.2168,-96.4998,1013.86,11111222 
TABS,ioos:station:wmo:42045:1,2009-02-02T11:00:00Z,26.2168,-96.4998,1014.27,11111222 
TABS,ioos:station:wmo:42045:1,2009-02-02T11:30:00Z,26.2168,-96.4998,1014.76,11111222 
TABS,ioos:station:wmo:42045:1,2009-02-02T12:00:00Z,26.2168,-96.4998,1015.16,11111222 
TABS,ioos:station:wmo:42045:1,2009-02-02T12:30:00Z,26.2168,-96.4998,1015.46,11111222 
TABS,ioos:station:wmo:42045:1,2009-02-02T13:00:00Z,26.2168,-96.4998,1016.48,11111222 
TABS,ioos:station:wmo:42045:1,2009-02-02T13:30:00Z,26.2168,-96.4998,1016.51,11111222 
TABS,ioos:station:wmo:42045:1,2009-02-02T14:00:00Z,26.2168,-96.4998,1017.16,11111222 
TABS,ioos:station:wmo:42045:1,2009-02-02T14:30:00Z,26.2168,-96.4998,1017.17,11111222 
TABS,ioos:station:wmo:42045:1,2009-02-02T15:00:00Z,26.2168,-96.4998,1017.87,11111222 
TABS,ioos:station:wmo:42045:1,2009-02-02T15:30:00Z,26.2168,-96.4998,1018.88,11111222 
TABS,ioos:station:wmo:42045:1,2009-02-02T16:00:00Z,26.2168,-96.4998,1019.41,11111222 
TABS,ioos:station:wmo:42045:1,2009-02-02T16:30:00Z,26.2168,-96.4998,1020.07,11111222 
TABS,ioos:station:wmo:42045:1,2009-02-02T17:00:00Z,26.2168,-96.4998,1020.41,11111222 
TABS,ioos:station:wmo:42045:1,2009-02-02T17:30:00Z,26.2168,-96.4998,1020.29,11111222 
TABS,ioos:station:wmo:42045:1,2009-02-02T18:00:00Z,26.2168,-96.4998,1020.43,11111222 
TABS,ioos:station:wmo:42045:1,2009-02-02T18:30:00Z,26.2168,-96.4998,1019.55,11111222 
TABS,ioos:station:wmo:42045:1,2009-02-02T19:00:00Z,26.2168,-96.4998,1019.54,11111222 
TABS,ioos:station:wmo:42045:1,2009-02-02T19:30:00Z,26.2168,-96.4998,1020.07,11111222 
TABS,ioos:station:wmo:42045:1,2009-02-02T20:00:00Z,26.2168,-96.4998,1019.94,11111222 
TABS,ioos:station:wmo:42045:1,2009-02-02T20:30:00Z,26.2168,-96.4998,1019.66,11111222 
TABS,ioos:station:wmo:42045:1,2009-02-02T21:00:00Z,26.2168,-96.4998,1020.4,11111222 
TABS,ioos:station:wmo:42045:1,2009-02-02T21:30:00Z,26.2168,-96.4998,1020.63,11111222 
TABS,ioos:station:wmo:42045:1,2009-02-02T22:00:00Z,26.2168,-96.4998,1020.94,11111222 
TABS,ioos:station:wmo:42045:1,2009-02-02T22:30:00Z,26.2168,-96.4998,1021.29,11111222 
TABS,ioos:station:wmo:42045:1,2009-02-02T23:00:00Z,26.2168,-96.4998,1021.43,11111222 
TABS,ioos:station:wmo:42045:1,2009-02-02T23:30:00Z,26.2168,-96.4998,1021.87,11111222 
TABS,ioos:station:wmo:42045:1,2009-02-03T00:00:00Z,26.2168,-96.4998,1022.33,11111222 
TABS,ioos:station:wmo:42045:1,2009-02-03T00:30:00Z,26.2168,-96.4998,1022.89,11111222 
TABS,ioos:station:wmo:42045:1,2009-02-03T01:00:00Z,26.2168,-96.4998,1023.27,11111222 
TABS,ioos:station:wmo:42045:1,2009-02-03T01:30:00Z,26.2168,-96.4998,1023.8,11111222 
TABS,ioos:station:wmo:42045:1,2009-02-03T02:00:00Z,26.2168,-96.4998,1024.32,11111222 
TABS,ioos:station:wmo:42045:1,2009-02-03T02:30:00Z,26.2168,-96.4998,1024.45,11111222 
TABS,ioos:station:wmo:42045:1,2009-02-03T03:00:00Z,26.2168,-96.4998,1024.52,11111222 
TABS,ioos:station:wmo:42045:1,2009-02-03T03:30:00Z,26.2168,-96.4998,1024.58,11111222 
TABS,ioos:station:wmo:42045:1,2009-02-03T04:00:00Z,26.2168,-96.4998,1024.77,11111222 
TABS,ioos:station:wmo:42045:1,2009-02-03T04:30:00Z,26.2168,-96.4998,1025.07,11111222 
TABS,ioos:station:wmo:42045:1,2009-02-03T05:00:00Z,26.2168,-96.4998,1024.99,11111222 
TABS,ioos:station:wmo:42045:1,2009-02-03T05:30:00Z,26.2168,-96.4998,1024.98,11111222 
TABS,ioos:station:wmo:42045:1,2009-02-03T06:00:00Z,26.2168,-96.4998,1024.77,11111222 
TABS,ioos:station:wmo:42045:1,2009-02-03T06:30:00Z,26.2168,-96.4998,1024.91,11111222 
TABS,ioos:station:wmo:42045:1,2009-02-03T07:00:00Z,26.2168,-96.4998,1024.85,11111222 
TABS,ioos:station:wmo:42045:1,2009-02-03T07:30:00Z,26.2168,-96.4998,1024.85,11111222 
TABS,ioos:station:wmo:42045:1,2009-02-03T08:00:00Z,26.2168,-96.4998,1024.88,11111222 
TABS,ioos:station:wmo:42045:1,2009-02-03T08:30:00Z,26.2168,-96.4998,1024.69,11111222 
TABS,ioos:station:wmo:42045:1,2009-02-03T09:00:00Z,26.2168,-96.4998,1024.68,11111222 
TABS,ioos:station:wmo:42045:1,2009-02-03T09:30:00Z,26.2168,-96.4998,1024.64,11111222 
TABS,ioos:station:wmo:42045:1,2009-02-03T10:00:00Z,26.2168,-96.4998,1024.69,11111222 
TABS,ioos:station:wmo:42045:1,2009-02-03T10:30:00Z,26.2168,-96.4998,1024.76,11111222 
TABS,ioos:station:wmo:42045:1,2009-02-03T11:00:00Z,26.2168,-96.4998,1024.83,11111222 
TABS,ioos:station:wmo:42045:1,2009-02-03T11:30:00Z,26.2168,-96.4998,1025.16,11111222 
TABS,ioos:station:wmo:42045:1,2009-02-03T12:00:00Z,26.2168,-96.4998,1025.25,11111222 
TABS,ioos:station:wmo:42045:1,2009-02-03T12:30:00Z,26.2168,-96.4998,1025.49,11111222 
TABS,ioos:station:wmo:42045:1,2009-02-03T13:00:00Z,26.2168,-96.4998,1025.58,11111222 
TABS,ioos:station:wmo:42045:1,2009-02-03T13:30:00Z,26.2168,-96.4998,1025.92,11111222 
TABS,ioos:station:wmo:42045:1,2009-02-03T14:00:00Z,26.2168,-96.4998,1026.32,11111222 
TABS,ioos:station:wmo:42045:1,2009-02-03T14:30:00Z,26.2168,-96.4998,1026.8,11111222 
TABS,ioos:station:wmo:42045:1,2009-02-03T15:00:00Z,26.2168,-96.4998,1027.02,11111222 
TABS,ioos:station:wmo:42045:1,2009-02-03T15:30:00Z,26.2168,-96.4998,1027.43,11111222 
TABS,ioos:station:wmo:42045:1,2009-02-03T16:00:00Z,26.2168,-96.4998,1027.54,11111222 
TABS,ioos:station:wmo:42045:1,2009-02-03T16:30:00Z,26.2168,-96.4998,1027.62,11111222 
TABS,ioos:station:wmo:42045:1,2009-02-03T17:00:00Z,26.2168,-96.4998,1027.83,11111222 
TABS,ioos:station:wmo:42045:1,2009-02-03T17:30:00Z,26.2168,-96.4998,1027.47,11111222 
TABS,ioos:station:wmo:42045:1,2009-02-03T18:00:00Z,26.2168,-96.4998,1027.04,11111222 
TABS,ioos:station:wmo:42045:1,2009-02-03T18:30:00Z,26.2168,-96.4998,1026.38,11111222 
TABS,ioos:station:wmo:42045:1,2009-02-03T19:00:00Z,26.2168,-96.4998,1025.91,11111222 
TABS,ioos:station:wmo:42045:1,2009-02-03T19:30:00Z,26.2168,-96.4998,1025.71,11111222 
TABS,ioos:station:wmo:42045:1,2009-02-03T20:00:00Z,26.2168,-96.4998,1025.35,11111222 
TABS,ioos:station:wmo:42045:1,2009-02-03T20:30:00Z,26.2168,-96.4998,1025.18,11111222 
TABS,ioos:station:wmo:42045:1,2009-02-03T21:00:00Z,26.2168,-96.4998,1024.89,11111222 
TABS,ioos:station:wmo:42045:1,2009-02-03T21:30:00Z,26.2168,-96.4998,1024.84,11111222 
TABS,ioos:station:wmo:42045:1,2009-02-03T22:00:00Z,26.2168,-96.4998,1024.84,11111222 
TABS,ioos:station:wmo:42045:1,2009-02-03T22:30:00Z,26.2168,-96.4998,1025.04,11111222 
TABS,ioos:station:wmo:42045:1,2009-02-03T23:00:00Z,26.2168,-96.4998,1024.88,11111222 
TABS,ioos:station:wmo:42045:1,2009-02-03T23:30:00Z,26.2168,-96.4998,1025.03,11111222 
TABS,ioos:station:wmo:42045:1,2009-02-04T00:00:00Z,26.2168,-96.4998,1025.18,11111222 
TABS,ioos:station:wmo:42045:1,2009-02-04T00:30:00Z,26.2168,-96.4998,1025.49,11111222 
TABS,ioos:station:wmo:42045:1,2009-02-04T01:00:00Z,26.2168,-96.4998,1025.63,11111222 
TABS,ioos:station:wmo:42045:1,2009-02-04T01:30:00Z,26.2168,-96.4998,1025.85,11111222 
TABS,ioos:station:wmo:42045:1,2009-02-04T02:00:00Z,26.2168,-96.4998,1025.98,11111222 
TABS,ioos:station:wmo:42045:1,2009-02-04T02:30:00Z,26.2168,-96.4998,1026.34,11111222 
TABS,ioos:station:wmo:42045:1,2009-02-04T03:00:00Z,26.2168,-96.4998,1026.6,11111222 
TABS,ioos:station:wmo:42045:1,2009-02-04T03:30:00Z,26.2168,-96.4998,1026.97,11111222 
TABS,ioos:station:wmo:42045:1,2009-02-04T04:00:00Z,26.2168,-96.4998,1027.09,11111222 
TABS,ioos:station:wmo:42045:1,2009-02-04T04:30:00Z,26.2168,-96.4998,1027.34,11111222 
TABS,ioos:station:wmo:42045:1,2009-02-04T05:00:00Z,26.2168,-96.4998,1027.49,11111222 
TABS,ioos:station:wmo:42045:1,2009-02-04T05:30:00Z,26.2168,-96.4998,1027.45,11111222 
TABS,ioos:station:wmo:42045:1,2009-02-04T06:00:00Z,26.2168,-96.4998,1027.36,11111222 
TABS,ioos:station:wmo:42045:1,2009-02-04T06:30:00Z,26.2168,-96.4998,1027.49,11111222 
TABS,ioos:station:wmo:42045:1,2009-02-04T07:00:00Z,26.2168,-96.4998,1027.34,11111222 
TABS,ioos:station:wmo:42045:1,2009-02-04T07:30:00Z,26.2168,-96.4998,1027.52,11111222 
TABS,ioos:station:wmo:42045:1,2009-02-04T08:00:00Z,26.2168,-96.4998,1027.55,11111222 
TABS,ioos:station:wmo:42045:1,2009-02-04T08:30:00Z,26.2168,-96.4998,1027.43,11111222 
TABS,ioos:station:wmo:42045:1,2009-02-04T09:00:00Z,26.2168,-96.4998,1027.55,11111222 
TABS,ioos:station:wmo:42045:1,2009-02-04T09:30:00Z,26.2168,-96.4998,1027.34,11111222 
TABS,ioos:station:wmo:42045:1,2009-02-04T10:00:00Z,26.2168,-96.4998,1027.25,11111222 
TABS,ioos:station:wmo:42045:1,2009-02-04T10:30:00Z,26.2168,-96.4998,1027.32,11111222 
TABS,ioos:station:wmo:42045:1,2009-02-04T11:00:00Z,26.2168,-96.4998,1027.58,11111222 
TABS,ioos:station:wmo:42045:1,2009-02-04T11:30:00Z,26.2168,-96.4998,1027.94,11111222 
TABS,ioos:station:wmo:42045:1,2009-02-04T12:00:00Z,26.2168,-96.4998,1028.32,11111222 
TABS,ioos:station:wmo:42045:1,2009-02-04T12:30:00Z,26.2168,-96.4998,1028.64,11111222 
TABS,ioos:station:wmo:42045:1,2009-02-04T13:00:00Z,26.2168,-96.4998,1029.04,11111222 
TABS,ioos:station:wmo:42045:1,2009-02-04T13:30:00Z,26.2168,-96.4998,1029.58,11111222 
TABS,ioos:station:wmo:42045:1,2009-02-04T14:00:00Z,26.2168,-96.4998,1030.0,11111222 
TABS,ioos:station:wmo:42045:1,2009-02-04T14:30:00Z,26.2168,-96.4998,1030.57,11111222 
TABS,ioos:station:wmo:42045:1,2009-02-04T15:00:00Z,26.2168,-96.4998,1031.02,11111222 
TABS,ioos:station:wmo:42045:1,2009-02-04T15:30:00Z,26.2168,-96.4998,1031.6,11111222 
TABS,ioos:station:wmo:42045:1,2009-02-04T16:00:00Z,26.2168,-96.4998,1032.16,11111222 
TABS,ioos:station:wmo:42045:1,2009-02-04T16:30:00Z,26.2168,-96.4998,1032.57,11111222 
TABS,ioos:station:wmo:42045:1,2009-02-04T17:00:00Z,26.2168,-96.4998,1032.67,11111222 
TABS,ioos:station:wmo:42045:1,2009-02-04T17:30:00Z,26.2168,-96.4998,1032.58,11111222 
TABS,ioos:station:wmo:42045:1,2009-02-04T18:00:00Z,26.2168,-96.4998,1032.2,11111222 
TABS,ioos:station:wmo:42045:1,2009-02-04T18:30:00Z,26.2168,-96.4998,1031.76,11111222 
TABS,ioos:station:wmo:42045:1,2009-02-04T19:00:00Z,26.2168,-96.4998,1031.22,11111222 
TABS,ioos:station:wmo:42045:1,2009-02-04T19:30:00Z,26.2168,-96.4998,1030.91,11111222 
TABS,ioos:station:wmo:42045:1,2009-02-04T20:00:00Z,26.2168,-96.4998,1030.73,11111222 
TABS,ioos:station:wmo:42045:1,2009-02-04T20:30:00Z,26.2168,-96.4998,1030.55,11111222 
TABS,ioos:station:wmo:42045:1,2009-02-04T21:00:00Z,26.2168,-96.4998,1030.25,11111222 
TABS,ioos:station:wmo:42045:1,2009-02-04T21:30:00Z,26.2168,-96.4998,1030.31,11111222 
TABS,ioos:station:wmo:42045:1,2009-02-04T22:00:00Z,26.2168,-96.4998,1030.33,11111222 
TABS,ioos:station:wmo:42045:1,2009-02-04T22:30:00Z,26.2168,-96.4998,1030.38,11111222 
TABS,ioos:station:wmo:42045:1,2009-02-04T23:00:00Z,26.2168,-96.4998,1030.6,11111222 
TABS,ioos:station:wmo:42045:1,2009-02-04T23:30:00Z,26.2168,-96.4998,1030.76,11111222 
TABS,ioos:station:wmo:42045:1,2009-02-05T00:00:00Z,26.2168,-96.4998,1031.01,11111222 
TABS,ioos:station:wmo:42045:1,2009-02-05T00:30:00Z,26.2168,-96.4998,1031.19,11111222 
TABS,ioos:station:wmo:42045:1,2009-02-05T01:00:00Z,26.2168,-96.4998,1031.48,11111222 
TABS,ioos:station:wmo:42045:1,2009-02-05T01:30:00Z,26.2168,-96.4998,1031.7,11111222 
TABS,ioos:station:wmo:42045:1,2009-02-05T02:00:00Z,26.2168,-96.4998,1031.86,11111222 
TABS,ioos:station:wmo:42045:1,2009-02-05T02:30:00Z,26.2168,-96.4998,1032.2,11111222 
TABS,ioos:station:wmo:42045:1,2009-02-05T03:00:00Z,26.2168,-96.4998,1032.17,11111222 
TABS,ioos:station:wmo:42045:1,2009-02-05T03:30:00Z,26.2168,-96.4998,1032.36,11111222 
TABS,ioos:station:wmo:42045:1,2009-02-05T04:00:00Z,26.2168,-96.4998,1032.45,11111222 
TABS,ioos:station:wmo:42045:1,2009-02-05T04:30:00Z,26.2168,-96.4998,1032.44,11111222 
TABS,ioos:station:wmo:42045:1,2009-02-05T05:00:00Z,26.2168,-96.4998,1032.39,11111222 
TABS,ioos:station:wmo:42045:1,2009-02-05T05:30:00Z,26.2168,-96.4998,1032.06,11111222 
TABS,ioos:station:wmo:42045:1,2009-02-05T06:00:00Z,26.2168,-96.4998,1031.88,11111222 
TABS,ioos:station:wmo:42045:1,2009-02-05T06:30:00Z,26.2168,-96.4998,1031.72,11111222 
TABS,ioos:station:wmo:42045:1,2009-02-05T07:00:00Z,26.2168,-96.4998,1031.52,11111222 
TABS,ioos:station:wmo:42045:1,2009-02-05T07:30:00Z,26.2168,-96.4998,1031.1,11111222 
TABS,ioos:station:wmo:42045:1,2009-02-05T08:00:00Z,26.2168,-96.4998,1030.9,11111222 
TABS,ioos:station:wmo:42045:1,2009-02-05T08:30:00Z,26.2168,-96.4998,1030.62,11111222 
TABS,ioos:station:wmo:42045:1,2009-02-05T09:00:00Z,26.2168,-96.4998,1030.62,11111222 
TABS,ioos:station:wmo:42045:1,2009-02-05T09:30:00Z,26.2168,-96.4998,1030.32,11111222 
TABS,ioos:station:wmo:42045:1,2009-02-05T10:00:00Z,26.2168,-96.4998,1030.26,11111222 
TABS,ioos:station:wmo:42045:1,2009-02-05T10:30:00Z,26.2168,-96.4998,1030.17,11111222 
TABS,ioos:station:wmo:42045:1,2009-02-05T11:00:00Z,26.2168,-96.4998,1030.12,11111222 
TABS,ioos:station:wmo:42045:1,2009-02-05T11:30:00Z,26.2168,-96.4998,1029.94,11111222 
TABS,ioos:station:wmo:42045:1,2009-02-05T12:00:00Z,26.2168,-96.4998,1030.37,11111222 
TABS,ioos:station:wmo:42045:1,2009-02-05T12:30:00Z,26.2168,-96.4998,1030.37,11111222 
TABS,ioos:station:wmo:42045:1,2009-02-05T13:00:00Z,26.2168,-96.4998,1030.56,11111222 
TABS,ioos:station:wmo:42045:1,2009-02-05T13:30:00Z,26.2168,-96.4998,1030.67,11111222 
TABS,ioos:station:wmo:42045:1,2009-02-05T14:00:00Z,26.2168,-96.4998,1030.81,11111222 
TABS,ioos:station:wmo:42045:1,2009-02-05T14:30:00Z,26.2168,-96.4998,1031.12,11111222 
TABS,ioos:station:wmo:42045:1,2009-02-05T15:00:00Z,26.2168,-96.4998,1031.33,11111222 
TABS,ioos:station:wmo:42045:1,2009-02-05T15:30:00Z,26.2168,-96.4998,1031.74,11111222 
TABS,ioos:station:wmo:42045:1,2009-02-05T16:00:00Z,26.2168,-96.4998,1031.99,11111222 
TABS,ioos:station:wmo:42045:1,2009-02-05T16:30:00Z,26.2168,-96.4998,1032.07,11111222 
TABS,ioos:station:wmo:42045:1,2009-02-05T17:00:00Z,26.2168,-96.4998,1031.66,11111222 
TABS,ioos:station:wmo:42045:1,2009-02-05T17:30:00Z,26.2168,-96.4998,1031.54,11111222 
TABS,ioos:station:wmo:42045:1,2009-02-05T18:00:00Z,26.2168,-96.4998,1031.11,11111222 
TABS,ioos:station:wmo:42045:1,2009-02-05T18:30:00Z,26.2168,-96.4998,1030.68,11111222 
TABS,ioos:station:wmo:42045:1,2009-02-05T19:00:00Z,26.2168,-96.4998,1029.9,11111222 
TABS,ioos:station:wmo:42045:1,2009-02-05T19:30:00Z,26.2168,-96.4998,1029.53,11111222 
TABS,ioos:station:wmo:42045:1,2009-02-05T20:00:00Z,26.2168,-96.4998,1029.31,11111222 
TABS,ioos:station:wmo:42045:1,2009-02-05T20:30:00Z,26.2168,-96.4998,1029.12,11111222 
TABS,ioos:station:wmo:42045:1,2009-02-05T21:00:00Z,26.2168,-96.4998,1028.9,11111222 
TABS,ioos:station:wmo:42045:1,2009-02-05T21:30:00Z,26.2168,-96.4998,1028.59,11111222 
TABS,ioos:station:wmo:42045:1,2009-02-05T22:00:00Z,26.2168,-96.4998,1028.46,11111222 
TABS,ioos:station:wmo:42045:1,2009-02-05T22:30:00Z,26.2168,-96.4998,1028.54,11111222 
TABS,ioos:station:wmo:42045:1,2009-02-05T23:00:00Z,26.2168,-96.4998,1028.36,11111222 
TABS,ioos:station:wmo:42045:1,2009-02-05T23:30:00Z,26.2168,-96.4998,1028.01,11111222 
TABS,ioos:station:wmo:42045:1,2009-02-06T00:00:00Z,26.2168,-96.4998,1028.1,11111222 
TABS,ioos:station:wmo:42045:1,2009-02-06T00:30:00Z,26.2168,-96.4998,1027.96,11111222 
TABS,ioos:station:wmo:42045:1,2009-02-06T01:00:00Z,26.2168,-96.4998,1028.19,11111222 
TABS,ioos:station:wmo:42045:1,2009-02-06T01:30:00Z,26.2168,-96.4998,1028.28,11111222 
TABS,ioos:station:wmo:42045:1,2009-02-06T02:00:00Z,26.2168,-96.4998,1028.59,11111222 
TABS,ioos:station:wmo:42045:1,2009-02-06T02:30:00Z,26.2168,-96.4998,1028.61,11111222 
TABS,ioos:station:wmo:42045:1,2009-02-06T03:00:00Z,26.2168,-96.4998,1028.62,11111222 
TABS,ioos:station:wmo:42045:1,2009-02-06T03:30:00Z,26.2168,-96.4998,1028.63,11111222 
TABS,ioos:station:wmo:42045:1,2009-02-06T04:00:00Z,26.2168,-96.4998,1028.57,11111222 
TABS,ioos:station:wmo:42045:1,2009-02-06T04:30:00Z,26.2168,-96.4998,1028.36,11111222 
TABS,ioos:station:wmo:42045:1,2009-02-06T05:00:00Z,26.2168,-96.4998,1028.36,11111222 
TABS,ioos:station:wmo:42045:1,2009-02-06T05:30:00Z,26.2168,-96.4998,1028.1,11111222 
TABS,ioos:station:wmo:42045:1,2009-02-06T06:00:00Z,26.2168,-96.4998,1027.69,11111222 
TABS,ioos:station:wmo:42045:1,2009-02-06T06:30:00Z,26.2168,-96.4998,1027.5,11111222 
TABS,ioos:station:wmo:42045:1,2009-02-06T07:00:00Z,26.2168,-96.4998,1027.3,11111222 
TABS,ioos:station:wmo:42045:1,2009-02-06T07:30:00Z,26.2168,-96.4998,1027.11,11111222 
TABS,ioos:station:wmo:42045:1,2009-02-06T08:00:00Z,26.2168,-96.4998,1026.82,11111222 
TABS,ioos:station:wmo:42045:1,2009-02-06T08:30:00Z,26.2168,-96.4998,1026.68,11111222 
TABS,ioos:station:wmo:42045:1,2009-02-06T09:00:00Z,26.2168,-96.4998,1026.16,11111222 
TABS,ioos:station:wmo:42045:1,2009-02-06T09:30:00Z,26.2168,-96.4998,1025.91,11111222 
TABS,ioos:station:wmo:42045:1,2009-02-06T10:00:00Z,26.2168,-96.4998,1025.88,11111222 
TABS,ioos:station:wmo:42045:1,2009-02-06T10:30:00Z,26.2168,-96.4998,1025.69,11111222 
TABS,ioos:station:wmo:42045:1,2009-02-06T11:00:00Z,26.2168,-96.4998,1025.48,11111222 
TABS,ioos:station:wmo:42045:1,2009-02-06T11:30:00Z,26.2168,-96.4998,1025.26,11111222 
TABS,ioos:station:wmo:42045:1,2009-02-06T12:00:00Z,26.2168,-96.4998,1025.33,11111222 
TABS,ioos:station:wmo:42045:1,2009-02-06T12:30:00Z,26.2168,-96.4998,1025.34,11111222 
TABS,ioos:station:wmo:42045:1,2009-02-06T13:00:00Z,26.2168,-96.4998,1025.38,11111222 
TABS,ioos:station:wmo:42045:1,2009-02-06T13:30:00Z,26.2168,-96.4998,1025.47,11111222 
TABS,ioos:station:wmo:42045:1,2009-02-06T14:00:00Z,26.2168,-96.4998,1025.73,11111222 
TABS,ioos:station:wmo:42045:1,2009-02-06T14:30:00Z,26.2168,-96.4998,1026.05,11111222 
TABS,ioos:station:wmo:42045:1,2009-02-06T15:00:00Z,26.2168,-96.4998,1026.19,11111222 
TABS,ioos:station:wmo:42045:1,2009-02-06T15:30:00Z,26.2168,-96.4998,1026.29,11111222 
TABS,ioos:station:wmo:42045:1,2009-02-06T16:00:00Z,26.2168,-96.4998,1026.64,11111222 
TABS,ioos:station:wmo:42045:1,2009-02-06T16:30:00Z,26.2168,-96.4998,1026.65,11111222 
TABS,ioos:station:wmo:42045:1,2009-02-06T17:00:00Z,26.2168,-96.4998,1026.58,11111222 
TABS,ioos:station:wmo:42045:1,2009-02-06T17:30:00Z,26.2168,-96.4998,1026.49,11111222 
TABS,ioos:station:wmo:42045:1,2009-02-06T18:00:00Z,26.2168,-96.4998,1025.82,11111222 
TABS,ioos:station:wmo:42045:1,2009-02-06T18:30:00Z,26.2168,-96.4998,1024.99,11111222 